Language: 


Des rapports , des résumés tant et plus, au choix de chacun....


Données statistiques de la station
Quotidien Rapport Décembre 26, 2017 Unités:  Anglais    Métrique   les deux
« Précédent Jour
Suivant Jour »
Quotidien Hebdomadaire Mensuel Annuel Actuel
  Haut: Bas: Moyen:
Température: TemperatureC °F 5.3 °F 6.7 °F
Pt de rosée: DewpointC °F 5.0 °F 5.6 °F
Humidité: Humidity % 81 % 91 %
Vitesse du vent: WindSpeedKMH mph 6.9 mph 18.6 mph
Rafales: WindSpeedGustKMH mph - -
Vent:- - SW
Pression: PressurehPa in 997.9 in -
Précipitation: 4.1 in    
Historical Graphs
 
 
Données statistiques pour Décembre 26, 2017
Heure Température Point de rosée Pression Vent Vitesse du vent Refales Humidité Pluie (taux horaire)
TemperatureC °F DewpointC °F PressurehPa in Calm     Humidity % HourlyPrecipMM in
00:01 5.6 °F 5.0 °F 1002.9 in South 32.3 mph 37.8 mph 94 % 0.0 in
00:03 5.6 °F 5.0 °F 1002.9 in SSW 31.4 mph 38.1 mph 94 % 0.0 in
00:05 5.6 °F 5.0 °F 1002.9 in SSW 20.1 mph 38.1 mph 94 % 0.0 in
00:10 5.5 °F 5.0 °F 1002.9 in SSW 17.2 mph 38.1 mph 94 % 0.0 in
00:11 5.5 °F 5.0 °F 1002.9 in South 25.3 mph 38.1 mph 94 % 0.0 in
00:14 5.5 °F 5.0 °F 1002.9 in South 22.7 mph 37.5 mph 94 % 0.0 in
00:19 5.5 °F 5.0 °F 1002.9 in South 23.8 mph 40.7 mph 94 % 0.0 in
00:20 5.5 °F 5.0 °F 1002.9 in SSE 14.0 mph 40.7 mph 94 % 0.0 in
00:25 5.4 °F 5.0 °F 1002.9 in SSE 24.5 mph 40.7 mph 95 % 0.0 in
00:26 5.4 °F 5.0 °F 1002.9 in SSW 17.7 mph 40.7 mph 95 % 0.0 in
00:31 5.4 °F 5.0 °F 1001.9 in SSE 21.2 mph 37.0 mph 95 % 0.0 in
00:36 5.4 °F 5.0 °F 1001.9 in SSW 25.3 mph 40.7 mph 95 % 0.0 in
00:38 5.4 °F 5.0 °F 1001.9 in South 20.1 mph 40.7 mph 95 % 0.0 in
00:39 5.4 °F 5.0 °F 1001.9 in South 27.4 mph 40.7 mph 95 % 0.0 in
00:44 5.4 °F 5.0 °F 1001.9 in South 13.7 mph 40.7 mph 95 % 0.0 in
00:49 5.4 °F 5.0 °F 1001.9 in South 21.2 mph 35.6 mph 95 % 0.0 in
00:51 5.4 °F 5.0 °F 1001.9 in South 26.2 mph 30.9 mph 95 % 0.0 in
00:52 5.4 °F 5.0 °F 1001.9 in South 27.0 mph 30.9 mph 95 % 0.0 in
00:57 5.4 °F 5.0 °F 1000.9 in SSW 19.8 mph 30.9 mph 95 % 0.0 in
01:02 5.4 °F 5.0 °F 1000.9 in South 20.9 mph 39.6 mph 95 % 0.0 in
01:05 5.4 °F 5.0 °F 1000.9 in South 17.7 mph 39.6 mph 95 % 0.0 in
01:10 5.4 °F 5.0 °F 1000.9 in South 17.7 mph 30.9 mph 95 % 0.0 in
01:13 5.4 °F 5.0 °F 1000.9 in SSW 16.9 mph 31.4 mph 95 % 0.0 in
01:14 5.4 °F 5.0 °F 1000.9 in SSE 23.8 mph 31.4 mph 95 % 0.0 in
01:19 5.4 °F 5.0 °F 1000.9 in South 17.2 mph 31.7 mph 95 % 0.0 in
01:24 5.4 °F 5.0 °F 1000.9 in SSE 17.7 mph 34.6 mph 95 % 0.0 in
01:27 5.4 °F 5.0 °F 999.9 in South 24.5 mph 36.7 mph 95 % 0.0 in
01:28 5.4 °F 5.0 °F 999.9 in SSE 34.3 mph 36.7 mph 95 % 0.0 in
01:33 5.4 °F 5.0 °F 999.9 in South 21.2 mph 36.7 mph 95 % 0.0 in
01:34 5.4 °F 5.0 °F 999.9 in SW 24.5 mph 36.7 mph 95 % 0.0 in
01:38 5.4 °F 5.0 °F 999.9 in South 16.3 mph 34.3 mph 95 % 0.0 in
01:39 5.4 °F 5.0 °F 999.9 in SSW 13.7 mph 32.3 mph 95 % 0.0 in
01:44 5.5 °F 5.0 °F 999.9 in South 27.0 mph 34.6 mph 95 % 0.0 in
01:45 5.5 °F 5.0 °F 999.9 in SSW 15.8 mph 34.6 mph 95 % 0.0 in
01:50 5.5 °F 5.0 °F 999.9 in SSW 36.7 mph 36.7 mph 95 % 0.0 in
01:54 5.6 °F 5.0 °F 999.9 in SSW 28.0 mph 36.7 mph 94 % 0.0 in
01:57 5.6 °F 5.0 °F 999.9 in SW 12.2 mph 36.7 mph 94 % 0.0 in
02:02 5.6 °F 5.0 °F 999.9 in WSW 20.6 mph 30.6 mph 94 % 0.0 in
02:07 5.7 °F 5.0 °F 999.9 in SSW 15.8 mph 28.0 mph 94 % 0.0 in
02:12 5.7 °F 5.0 °F 999.9 in SW 16.3 mph 29.1 mph 94 % 0.0 in
02:17 5.8 °F 5.0 °F 999.9 in SSW 12.6 mph 30.2 mph 94 % 0.0 in
02:18 5.8 °F 5.0 °F 999.9 in SSW 19.8 mph 30.2 mph 94 % 0.0 in
02:23 5.8 °F 6.0 °F 999.9 in WSW 20.6 mph 23.3 mph 95 % 0.0 in
02:24 5.8 °F 6.0 °F 999.9 in SSW 23.3 mph 23.3 mph 95 % 0.0 in
02:27 5.8 °F 5.0 °F 998.9 in SSW 15.8 mph 23.8 mph 94 % 0.0 in
02:32 5.9 °F 6.0 °F 998.9 in SSW 20.6 mph 23.8 mph 95 % 0.0 in
02:37 5.9 °F 6.0 °F 998.9 in SSW 20.6 mph 24.8 mph 95 % 0.0 in
02:42 6.0 °F 5.0 °F 998.9 in SSW 23.3 mph 25.6 mph 94 % 0.0 in
02:44 6.0 °F 5.0 °F 998.9 in SSW 20.9 mph 28.5 mph 94 % 0.0 in
02:49 6.0 °F 5.0 °F 998.9 in South 15.4 mph 33.8 mph 94 % 0.0 in
02:52 6.1 °F 5.0 °F 998.9 in South 23.8 mph 33.8 mph 94 % 0.0 in
02:57 6.2 °F 6.0 °F 998.9 in SSW 24.8 mph 33.8 mph 94 % 0.0 in
03:00 6.3 °F 6.0 °F 998.9 in SSW 16.9 mph 28.5 mph 94 % 0.0 in
03:05 6.3 °F 6.0 °F 998.9 in SSW 20.6 mph 28.5 mph 94 % 0.0 in
03:10 6.4 °F 6.0 °F 999.9 in SSW 28.5 mph 32.3 mph 93 % 0.0 in
03:11 6.4 °F 6.0 °F 999.9 in SW 27.4 mph 32.3 mph 93 % 0.0 in
03:16 6.5 °F 6.0 °F 999.9 in WSW 24.8 mph 35.6 mph 93 % 0.0 in
03:21 6.6 °F 6.0 °F 999.9 in SW 23.0 mph 35.6 mph 93 % 0.0 in
03:22 6.6 °F 6.0 °F 999.9 in SSW 24.5 mph 35.6 mph 93 % 0.0 in
03:27 6.7 °F 6.0 °F 998.9 in SSW 21.2 mph 28.8 mph 93 % 0.0 in
03:28 6.7 °F 6.0 °F 998.9 in SW 23.0 mph 28.8 mph 93 % 0.0 in
03:30 6.7 °F 6.0 °F 998.9 in SSW 20.9 mph 31.7 mph 93 % 0.0 in
03:33 6.8 °F 6.0 °F 998.9 in South 21.2 mph 35.6 mph 93 % 0.0 in
03:38 6.8 °F 6.0 °F 998.9 in SSW 17.7 mph 35.6 mph 93 % 0.0 in
03:42 6.8 °F 6.0 °F 998.9 in WSW 28.0 mph 30.2 mph 93 % 0.0 in
03:46 7.0 °F 6.0 °F 998.9 in SW 22.4 mph 42.8 mph 93 % 0.0 in
03:51 7.0 °F 6.0 °F 998.9 in WSW 16.6 mph 42.8 mph 93 % 0.0 in
03:52 7.0 °F 6.0 °F 998.9 in SW 20.1 mph 42.8 mph 93 % 0.0 in
03:54 7.0 °F 6.0 °F 998.9 in WSW 24.8 mph 42.8 mph 93 % 0.0 in
03:57 7.0 °F 6.0 °F 998.9 in SW 23.8 mph 31.4 mph 93 % 0.0 in
04:02 6.9 °F 6.0 °F 998.9 in SSW 21.2 mph 31.4 mph 93 % 0.0 in
04:05 6.9 °F 6.0 °F 998.9 in WSW 24.5 mph 31.7 mph 94 % 0.0 in
04:06 6.9 °F 6.0 °F 998.9 in WSW 28.0 mph 31.7 mph 94 % 0.0 in
04:12 6.8 °F 6.0 °F 998.9 in WSW 19.8 mph 31.7 mph 94 % 0.0 in
04:17 6.8 °F 6.0 °F 998.9 in WSW 16.6 mph 32.8 mph 95 % 0.0 in
04:18 6.8 °F 6.0 °F 998.9 in WSW 16.6 mph 32.8 mph 95 % 0.0 in
04:19 6.8 °F 6.0 °F 998.9 in WSW 24.8 mph 32.8 mph 95 % 0.3 in
04:24 6.7 °F 6.0 °F 998.9 in WSW 20.6 mph 32.8 mph 96 % 0.3 in
04:25 6.7 °F 6.0 °F 998.9 in WSW 24.8 mph 31.4 mph 96 % 0.3 in
04:26 6.7 °F 6.0 °F 997.9 in WSW 17.7 mph 31.4 mph 96 % 0.3 in
04:31 6.6 °F 6.0 °F 997.9 in WSW 16.6 mph 31.4 mph 96 % 0.3 in
04:36 6.6 °F 6.0 °F 997.9 in WSW 24.8 mph 30.9 mph 97 % 0.3 in
04:38 6.6 °F 6.0 °F 997.9 in WSW 17.7 mph 30.9 mph 97 % 0.3 in
04:39 6.5 °F 6.0 °F 997.9 in WSW 17.2 mph 30.9 mph 97 % 0.3 in
04:44 6.5 °F 6.0 °F 998.9 in WSW 17.2 mph 30.9 mph 97 % 0.3 in
04:49 6.5 °F 6.0 °F 998.9 in WSW 19.5 mph 22.7 mph 97 % 0.3 in
04:54 6.5 °F 6.0 °F 998.9 in WSW 13.7 mph 24.8 mph 97 % 0.3 in
04:56 6.5 °F 6.0 °F 998.9 in WSW 10.5 mph 24.8 mph 97 % 0.3 in
04:57 6.5 °F 6.0 °F 998.9 in WSW 21.2 mph 24.8 mph 97 % 0.3 in
05:02 6.4 °F 6.0 °F 998.9 in WSW 17.2 mph 24.8 mph 97 % 0.3 in
05:05 6.4 °F 6.0 °F 998.9 in WSW 15.4 mph 21.2 mph 98 % 0.3 in
05:10 6.4 °F 6.0 °F 998.9 in SW 13.7 mph 21.2 mph 98 % 0.3 in
05:15 6.4 °F 6.0 °F 998.9 in WSW 13.0 mph 26.2 mph 98 % 0.5 in
05:16 6.4 °F 6.0 °F 998.9 in SW 17.2 mph 26.2 mph 98 % 0.5 in
05:21 6.4 °F 6.0 °F 998.9 in WSW 21.2 mph 26.2 mph 98 % 0.3 in
05:26 6.4 °F 6.0 °F 998.9 in SW 15.4 mph 21.2 mph 98 % 0.3 in
05:31 6.3 °F 6.0 °F 998.9 in WSW 17.2 mph 20.9 mph 98 % 0.3 in
05:36 6.3 °F 6.0 °F 998.9 in WSW 16.6 mph 19.8 mph 98 % 0.3 in
05:40 6.3 °F 6.0 °F 998.9 in SW 10.1 mph 20.6 mph 98 % 0.3 in
05:44 6.3 °F 6.0 °F 998.9 in WSW 12.2 mph 21.2 mph 98 % 0.3 in
05:46 6.3 °F 6.0 °F 998.9 in WSW 12.2 mph 21.2 mph 98 % 0.3 in
05:51 6.3 °F 6.0 °F 998.9 in WSW 17.2 mph 21.2 mph 98 % 0.3 in
05:53 6.3 °F 6.0 °F 998.9 in SSW 20.1 mph 20.6 mph 98 % 0.3 in
05:58 6.3 °F 6.0 °F 998.9 in SW 11.9 mph 20.6 mph 98 % 0.3 in
06:01 6.3 °F 6.0 °F 998.9 in WSW 13.0 mph 27.7 mph 98 % 0.3 in
06:05 6.3 °F 6.0 °F 998.9 in SW 11.9 mph 27.7 mph 98 % 0.3 in
06:08 6.3 °F 6.0 °F 998.9 in SW 11.1 mph 27.7 mph 98 % 0.3 in
06:13 6.2 °F 6.0 °F 998.9 in SSW 13.0 mph 17.7 mph 98 % 0.0 in
06:18 6.1 °F 6.0 °F 998.9 in SW 11.9 mph 15.8 mph 98 % 0.0 in
06:20 6.1 °F 6.0 °F 998.9 in WSW 11.9 mph 15.8 mph 98 % 0.0 in
06:25 6.1 °F 6.0 °F 998.9 in WSW 10.1 mph 16.9 mph 98 % 0.0 in
06:27 6.1 °F 6.0 °F 998.9 in SW 9.3 mph 16.9 mph 98 % 0.0 in
06:32 6.0 °F 6.0 °F 998.9 in WSW 10.1 mph 16.9 mph 97 % 0.0 in
06:37 6.0 °F 6.0 °F 998.9 in WSW 12.6 mph 14.0 mph 97 % 0.0 in
06:38 6.0 °F 6.0 °F 998.9 in WSW 15.4 mph 15.4 mph 97 % 0.0 in
06:39 6.0 °F 6.0 °F 998.9 in WSW 12.2 mph 16.9 mph 97 % 0.0 in
06:44 5.9 °F 6.0 °F 998.9 in SW 13.7 mph 19.1 mph 97 % 0.0 in
06:45 5.9 °F 6.0 °F 998.9 in WSW 13.0 mph 19.1 mph 97 % 0.0 in
06:46 5.9 °F 6.0 °F 998.9 in WSW 13.7 mph 19.1 mph 97 % 0.0 in
06:51 5.8 °F 6.0 °F 998.9 in WSW 20.6 mph 31.7 mph 96 % 0.0 in
06:52 5.8 °F 6.0 °F 998.9 in WSW 24.8 mph 31.7 mph 96 % 0.0 in
06:57 5.9 °F 6.0 °F 998.9 in WSW 15.8 mph 33.8 mph 95 % 0.0 in
07:02 5.8 °F 6.0 °F 998.9 in WSW 25.6 mph 31.4 mph 95 % 0.0 in
07:03 5.8 °F 6.0 °F 998.9 in WSW 23.0 mph 29.1 mph 95 % 0.0 in
07:04 5.8 °F 6.0 °F 998.9 in WSW 24.8 mph 28.5 mph 95 % 0.0 in
07:09 5.8 °F 6.0 °F 998.9 in WSW 13.0 mph 28.5 mph 95 % 0.0 in
07:12 5.8 °F 6.0 °F 998.9 in WSW 16.9 mph 28.5 mph 95 % 0.0 in
07:17 5.8 °F 6.0 °F 998.9 in WSW 17.2 mph 20.6 mph 95 % 0.0 in
07:18 5.7 °F 5.0 °F 998.9 in WSW 17.7 mph 20.1 mph 95 % 0.0 in
07:19 5.7 °F 5.0 °F 998.9 in WSW 14.0 mph 20.1 mph 95 % 0.0 in
07:24 5.7 °F 5.0 °F 998.9 in WSW 16.6 mph 17.7 mph 95 % 0.0 in
07:25 5.7 °F 5.0 °F 998.9 in SW 13.7 mph 17.7 mph 95 % 0.0 in
07:29 5.7 °F 5.0 °F 998.9 in SW 13.0 mph 17.2 mph 95 % 0.0 in
07:32 5.7 °F 5.0 °F 998.9 in WSW 13.7 mph 17.7 mph 95 % 0.0 in
07:37 5.6 °F 5.0 °F 998.9 in WSW 11.9 mph 17.7 mph 95 % 0.0 in
07:42 5.6 °F 5.0 °F 998.9 in SSW 16.3 mph 17.2 mph 95 % 0.0 in
07:44 5.6 °F 5.0 °F 998.9 in SW 12.2 mph 17.2 mph 95 % 0.0 in
07:47 5.5 °F 5.0 °F 998.9 in SSW 10.5 mph 16.3 mph 95 % 0.0 in
07:49 5.5 °F 5.0 °F 998.9 in SW 10.1 mph 16.3 mph 95 % 0.0 in
07:53 5.6 °F 5.0 °F 998.9 in SSW 12.2 mph 16.3 mph 95 % 0.0 in
07:54 5.6 °F 6.0 °F 998.9 in SSW 11.9 mph 16.3 mph 96 % 0.0 in
08:00 5.6 °F 6.0 °F 997.9 in SSW 10.5 mph 16.3 mph 96 % 0.0 in
08:01 5.6 °F 6.0 °F 997.9 in SW 12.6 mph 16.3 mph 96 % 0.0 in
08:06 5.5 °F 6.0 °F 997.9 in SW 9.7 mph 16.6 mph 96 % 0.0 in
08:07 5.5 °F 6.0 °F 997.9 in SW 14.3 mph 19.1 mph 97 % 0.0 in
08:12 5.5 °F 6.0 °F 997.9 in SW 11.9 mph 19.1 mph 97 % 0.0 in
08:13 5.5 °F 6.0 °F 997.9 in WSW 14.0 mph 19.1 mph 97 % 0.0 in
08:14 5.5 °F 6.0 °F 997.9 in WSW 25.3 mph 25.3 mph 97 % 0.0 in
08:19 5.5 °F 6.0 °F 997.9 in WSW 14.0 mph 25.3 mph 97 % 0.0 in
08:21 5.5 °F 6.0 °F 997.9 in SW 11.9 mph 25.3 mph 97 % 0.0 in
08:26 5.5 °F 6.0 °F 998.9 in SW 15.8 mph 17.7 mph 97 % 0.0 in
08:31 5.5 °F 6.0 °F 998.9 in WSW 10.5 mph 17.7 mph 97 % 0.0 in
08:34 5.4 °F 5.0 °F 998.9 in WSW 12.2 mph 17.7 mph 97 % 0.0 in
08:38 5.5 °F 6.0 °F 998.9 in WSW 13.0 mph 17.7 mph 97 % 0.0 in
08:40 5.5 °F 6.0 °F 998.9 in WSW 16.3 mph 17.7 mph 97 % 0.0 in
08:45 5.5 °F 6.0 °F 999.9 in WSW 11.6 mph 17.7 mph 98 % 0.3 in
08:48 5.5 °F 6.0 °F 999.9 in WSW 12.6 mph 21.9 mph 98 % 0.3 in
08:50 5.5 °F 6.0 °F 999.9 in WSW 10.8 mph 21.9 mph 98 % 0.3 in
08:54 5.4 °F 6.0 °F 999.9 in WSW 11.9 mph 21.9 mph 98 % 0.3 in
08:59 5.4 °F 6.0 °F 999.9 in WSW 9.7 mph 17.2 mph 98 % 0.3 in
09:02 5.4 °F 6.0 °F 999.9 in WSW 9.7 mph 16.3 mph 98 % 0.3 in
09:07 5.4 °F 6.0 °F 999.9 in SW 8.7 mph 14.0 mph 98 % 0.3 in
09:09 5.4 °F 6.0 °F 999.9 in WSW 10.1 mph 12.6 mph 98 % 0.3 in
09:14 5.3 °F 6.0 °F 999.9 in WSW 12.2 mph 13.7 mph 98 % 0.3 in
09:18 5.4 °F 6.0 °F 999.9 in WSW 12.6 mph 16.6 mph 98 % 0.3 in
09:20 5.4 °F 6.0 °F 999.9 in WSW 15.8 mph 16.6 mph 98 % 0.3 in
09:25 5.4 °F 6.0 °F 999.9 in WSW 9.7 mph 15.8 mph 98 % 0.3 in
09:27 5.4 °F 6.0 °F 1000.9 in West 7.9 mph 15.8 mph 98 % 0.3 in
09:32 5.4 °F 6.0 °F 1000.9 in WSW 6.9 mph 12.2 mph 98 % 0.3 in
09:33 5.4 °F 6.0 °F 1000.9 in WSW 10.1 mph 11.6 mph 98 % 0.3 in
09:38 5.4 °F 6.0 °F 1000.9 in SSW 10.5 mph 11.6 mph 98 % 0.3 in
09:39 5.5 °F 6.0 °F 1000.9 in WSW 13.0 mph 15.4 mph 98 % 0.3 in
09:40 5.5 °F 6.0 °F 1000.9 in WSW 9.7 mph 15.4 mph 98 % 0.3 in
09:45 5.6 °F 6.0 °F 1000.9 in West 12.2 mph 16.3 mph 98 % 0.3 in
09:46 5.6 °F 6.0 °F 1000.9 in West 15.8 mph 16.3 mph 98 % 0.3 in
09:49 5.6 °F 6.0 °F 1000.9 in WSW 12.6 mph 16.3 mph 98 % 0.3 in
09:53 5.6 °F 6.0 °F 1000.9 in WSW 9.0 mph 16.9 mph 98 % 0.8 in
09:58 5.4 °F 6.0 °F 1000.9 in WSW 10.8 mph 16.9 mph 98 % 0.8 in
09:59 5.4 °F 6.0 °F 1000.9 in SW 8.7 mph 16.9 mph 98 % 0.8 in
10:04 5.3 °F 6.0 °F 1000.9 in SW 11.6 mph 16.3 mph 98 % 0.8 in
10:05 5.3 °F 6.0 °F 1000.9 in WSW 13.7 mph 16.9 mph 98 % 0.8 in
10:10 5.4 °F 6.0 °F 1000.9 in WSW 10.5 mph 16.9 mph 98 % 0.8 in
10:15 5.3 °F 6.0 °F 1000.9 in SSW 10.1 mph 14.0 mph 98 % 0.8 in
10:19 5.4 °F 6.0 °F 1000.9 in WSW 13.7 mph 15.4 mph 98 % 0.8 in
10:20 5.4 °F 6.0 °F 1000.9 in SW 16.3 mph 16.3 mph 98 % 0.8 in
10:25 5.5 °F 6.0 °F 1000.9 in WSW 16.9 mph 25.6 mph 98 % 0.8 in
10:28 5.5 °F 6.0 °F 1000.9 in WSW 24.8 mph 25.6 mph 98 % 0.8 in
10:33 5.4 °F 6.0 °F 1000.9 in WSW 21.2 mph 32.8 mph 98 % 1.3 in
10:35 5.4 °F 6.0 °F 1000.9 in WSW 27.7 mph 32.8 mph 98 % 1.3 in
10:37 5.4 °F 6.0 °F 1000.9 in WSW 20.9 mph 32.8 mph 98 % 1.5 in
10:42 5.4 °F 6.0 °F 1001.9 in WSW 23.8 mph 28.8 mph 98 % 2.3 in
10:43 5.4 °F 6.0 °F 1001.9 in WSW 27.0 mph 28.8 mph 98 % 2.3 in
10:44 5.4 °F 6.0 °F 1001.9 in WSW 25.9 mph 28.8 mph 98 % 2.3 in
10:49 5.3 °F 6.0 °F 1001.9 in SW 20.6 mph 28.5 mph 98 % 2.5 in
10:51 5.3 °F 6.0 °F 1001.9 in SSW 24.5 mph 28.5 mph 98 % 2.3 in
10:54 5.3 °F 6.0 °F 1001.9 in WSW 16.6 mph 28.5 mph 98 % 2.3 in
10:57 5.3 °F 6.0 °F 1000.9 in WSW 16.9 mph 24.5 mph 98 % 2.3 in
11:02 5.4 °F 6.0 °F 1000.9 in SW 10.5 mph 20.6 mph 98 % 2.3 in
11:07 5.4 °F 6.0 °F 1000.9 in SSW 17.7 mph 20.1 mph 98 % 2.3 in
11:08 5.4 °F 6.0 °F 1000.9 in SW 10.1 mph 20.1 mph 98 % 2.3 in
11:13 5.8 °F 6.0 °F 1001.9 in WSW 13.7 mph 20.1 mph 98 % 2.3 in
11:18 5.9 °F 6.0 °F 1001.9 in WSW 13.7 mph 20.1 mph 98 % 2.3 in
11:20 5.9 °F 6.0 °F 1001.9 in SW 12.6 mph 19.8 mph 98 % 2.3 in
11:25 6.0 °F 6.0 °F 1001.9 in SW 11.6 mph 16.9 mph 98 % 2.3 in
11:26 6.0 °F 6.0 °F 1001.9 in SW 13.7 mph 15.4 mph 98 % 2.5 in
11:27 6.1 °F 6.0 °F 1001.9 in SW 13.7 mph 14.0 mph 98 % 2.5 in
11:32 6.2 °F 6.0 °F 1001.9 in SW 15.8 mph 19.8 mph 98 % 1.8 in
11:36 6.3 °F 6.0 °F 1001.9 in SSW 13.0 mph 19.8 mph 98 % 1.5 in
11:41 6.4 °F 6.0 °F 1000.9 in WSW 9.3 mph 20.9 mph 98 % 1.0 in
11:46 6.5 °F 7.0 °F 1000.9 in SW 16.9 mph 20.9 mph 98 % 0.3 in
11:51 6.6 °F 7.0 °F 1000.9 in WSW 17.2 mph 24.5 mph 98 % 0.3 in
11:55 6.7 °F 7.0 °F 1000.9 in SW 17.7 mph 30.6 mph 98 % 0.3 in
12:00 6.6 °F 7.0 °F 1000.9 in WSW 20.9 mph 30.6 mph 98 % 0.3 in
12:01 6.5 °F 7.0 °F 1000.9 in SW 33.5 mph 33.5 mph 98 % 0.3 in
12:05 6.7 °F 6.0 °F 1000.9 in WSW 24.5 mph 33.5 mph 97 % 0.3 in
12:06 6.7 °F 6.0 °F 1000.9 in SW 21.9 mph 33.5 mph 97 % 0.3 in
12:11 6.8 °F 6.0 °F 1000.9 in SW 16.6 mph 33.5 mph 97 % 0.3 in
12:16 6.9 °F 7.0 °F 1000.9 in WSW 28.8 mph 28.8 mph 96 % 0.3 in
12:17 6.9 °F 7.0 °F 1000.9 in WSW 19.8 mph 28.8 mph 96 % 0.3 in
12:21 6.8 °F 6.0 °F 1000.9 in WSW 17.7 mph 31.4 mph 96 % 0.3 in
12:23 6.8 °F 6.0 °F 1000.9 in WSW 14.8 mph 33.1 mph 96 % 0.3 in
12:28 6.8 °F 6.0 °F 1000.9 in SSW 21.9 mph 33.1 mph 95 % 0.0 in
12:30 6.8 °F 6.0 °F 1000.9 in WSW 20.6 mph 33.1 mph 95 % 0.0 in
12:35 7.0 °F 6.0 °F 1000.9 in WSW 14.0 mph 30.6 mph 94 % 0.0 in
12:36 7.0 °F 6.0 °F 1000.9 in SSW 16.3 mph 30.6 mph 94 % 0.0 in
12:37 7.0 °F 6.0 °F 1000.9 in WSW 16.6 mph 25.3 mph 94 % 0.0 in
12:42 7.0 °F 6.0 °F 999.9 in WSW 18.3 mph 24.5 mph 94 % 0.0 in
12:44 7.1 °F 6.0 °F 999.9 in WSW 22.4 mph 25.6 mph 93 % 0.0 in
12:48 7.2 °F 6.0 °F 999.9 in WSW 20.9 mph 25.9 mph 92 % 0.0 in
12:50 7.2 °F 6.0 °F 999.9 in WSW 20.9 mph 27.0 mph 92 % 0.0 in
12:55 7.2 °F 6.0 °F 999.9 in WSW 19.5 mph 27.0 mph 91 % 0.0 in
12:59 7.3 °F 6.0 °F 999.9 in SW 24.5 mph 27.7 mph 90 % 0.0 in
13:04 7.4 °F 6.0 °F 999.9 in SW 23.8 mph 27.7 mph 89 % 0.0 in
13:07 7.5 °F 6.0 °F 999.9 in SW 12.6 mph 27.7 mph 89 % 0.0 in
13:12 7.5 °F 6.0 °F 1000.9 in WSW 25.3 mph 28.5 mph 88 % 0.0 in
13:14 7.2 °F 6.0 °F 999.9 in WSW 19.5 mph 27.0 mph 91 % 0.0 in
13:15 7.4 °F 6.0 °F 1000.9 in SW 17.2 mph 28.5 mph 87 % 0.0 in
13:20 7.3 °F 5.0 °F 1000.9 in WSW 24.8 mph 31.7 mph 86 % 0.0 in
13:21 7.3 °F 5.0 °F 1000.9 in SW 28.5 mph 31.7 mph 86 % 0.0 in
13:25 7.2 °F 6.0 °F 999.9 in WSW 19.5 mph 27.0 mph 91 % 0.0 in
13:28 7.5 °F 6.0 °F 1000.9 in WSW 16.9 mph 30.9 mph 86 % 0.0 in
13:32 7.5 °F 6.0 °F 1000.9 in SSW 16.3 mph 29.1 mph 86 % 0.0 in
13:34 7.2 °F 6.0 °F 999.9 in WSW 19.5 mph 27.0 mph 91 % 0.0 in
13:38 7.4 °F 5.0 °F 1000.9 in WSW 21.9 mph 32.3 mph 85 % 0.0 in
13:40 7.2 °F 6.0 °F 999.9 in WSW 19.5 mph 27.0 mph 91 % 0.0 in
13:45 7.4 °F 5.0 °F 1000.9 in SW 15.4 mph 32.3 mph 84 % 0.0 in
13:50 7.5 °F 6.0 °F 1000.9 in SW 16.9 mph 27.0 mph 85 % 0.0 in
13:52 7.2 °F 6.0 °F 999.9 in WSW 19.5 mph 27.0 mph 91 % 0.0 in
13:57 7.6 °F 6.0 °F 1000.9 in SSW 16.9 mph 27.7 mph 86 % 0.0 in
14:00 7.7 °F 6.0 °F 1000.9 in SW 17.7 mph 31.4 mph 86 % 0.0 in
14:05 7.6 °F 6.0 °F 1000.9 in WSW 27.7 mph 31.4 mph 85 % 0.0 in
14:06 7.2 °F 6.0 °F 999.9 in WSW 19.5 mph 27.0 mph 91 % 0.0 in
14:10 7.2 °F 6.0 °F 999.9 in WSW 19.5 mph 27.0 mph 91 % 0.0 in
14:12 7.2 °F 6.0 °F 999.9 in WSW 19.5 mph 27.0 mph 91 % 0.0 in
14:16 7.7 °F 5.0 °F 999.9 in WSW 20.1 mph 29.1 mph 84 % 0.0 in
14:19 7.8 °F 5.0 °F 999.9 in SW 13.0 mph 29.1 mph 84 % 0.0 in
14:23 7.8 °F 5.0 °F 999.9 in SSW 14.0 mph 29.1 mph 83 % 0.0 in
14:24 7.2 °F 6.0 °F 999.9 in WSW 19.5 mph 27.0 mph 91 % 0.0 in
14:26 7.8 °F 5.0 °F 999.9 in WSW 16.9 mph 21.6 mph 83 % 0.0 in
14:31 7.7 °F 5.0 °F 999.9 in SW 19.1 mph 27.4 mph 83 % 0.0 in
14:32 7.7 °F 5.0 °F 999.9 in SSW 18.3 mph 27.4 mph 83 % 0.0 in
14:33 7.7 °F 5.0 °F 999.9 in WSW 21.2 mph 27.4 mph 83 % 0.0 in
14:38 7.5 °F 5.0 °F 999.9 in WSW 16.9 mph 27.4 mph 83 % 0.0 in
14:40 7.2 °F 6.0 °F 999.9 in WSW 19.5 mph 27.0 mph 91 % 0.0 in
14:41 7.2 °F 6.0 °F 999.9 in WSW 19.5 mph 27.0 mph 91 % 0.0 in
14:46 7.5 °F 5.0 °F 998.9 in WSW 20.6 mph 24.8 mph 83 % 0.0 in
14:48 7.5 °F 5.0 °F 998.9 in WSW 23.3 mph 24.8 mph 83 % 0.0 in
14:51 7.6 °F 5.0 °F 998.9 in SW 16.9 mph 24.8 mph 83 % 0.0 in
14:53 7.6 °F 5.0 °F 998.9 in SSW 17.7 mph 25.6 mph 83 % 0.0 in
14:58 7.2 °F 6.0 °F 999.9 in WSW 19.5 mph 27.0 mph 91 % 0.0 in
14:59 7.2 °F 6.0 °F 999.9 in WSW 19.5 mph 27.0 mph 91 % 0.0 in
15:00 7.7 °F 5.0 °F 998.9 in SW 17.7 mph 26.2 mph 83 % 0.0 in
15:05 7.2 °F 6.0 °F 999.9 in WSW 19.5 mph 27.0 mph 91 % 0.0 in
15:08 7.2 °F 6.0 °F 999.9 in WSW 19.5 mph 27.0 mph 91 % 0.0 in
15:12 7.2 °F 6.0 °F 999.9 in WSW 19.5 mph 27.0 mph 91 % 0.0 in
15:13 7.7 °F 5.0 °F 998.9 in SSW 13.0 mph 21.2 mph 82 % 0.0 in
15:18 7.2 °F 6.0 °F 999.9 in WSW 19.5 mph 27.0 mph 91 % 0.0 in
15:23 7.7 °F 5.0 °F 998.9 in WSW 12.2 mph 20.6 mph 81 % 0.0 in
15:25 7.8 °F 5.0 °F 998.9 in SSW 16.3 mph 20.6 mph 81 % 0.0 in
15:30 7.2 °F 6.0 °F 999.9 in WSW 19.5 mph 27.0 mph 91 % 0.0 in
15:33 7.8 °F 5.0 °F 998.9 in SW 20.9 mph 24.8 mph 81 % 0.0 in
15:36 7.8 °F 5.0 °F 998.9 in SW 20.9 mph 24.8 mph 81 % 0.0 in
15:40 7.2 °F 6.0 °F 999.9 in WSW 19.5 mph 27.0 mph 91 % 0.0 in
15:42 7.2 °F 6.0 °F 999.9 in WSW 19.5 mph 27.0 mph 91 % 0.0 in
15:45 7.2 °F 6.0 °F 999.9 in WSW 19.5 mph 27.0 mph 91 % 0.0 in
15:50 7.2 °F 6.0 °F 999.9 in WSW 19.5 mph 27.0 mph 91 % 0.0 in
15:52 7.2 °F 6.0 °F 999.9 in WSW 19.5 mph 27.0 mph 91 % 0.0 in
15:57 7.8 °F 5.0 °F 998.9 in SW 20.9 mph 24.8 mph 81 % 0.0 in
15:58 7.2 °F 6.0 °F 999.9 in WSW 19.5 mph 27.0 mph 91 % 0.0 in
16:03 7.2 °F 6.0 °F 999.9 in WSW 19.5 mph 27.0 mph 91 % 0.0 in
16:04 7.8 °F 5.0 °F 998.9 in SW 20.9 mph 24.8 mph 81 % 0.0 in
16:05 7.2 °F 6.0 °F 999.9 in WSW 19.5 mph 27.0 mph 91 % 0.0 in
16:10 7.8 °F 5.0 °F 998.9 in SW 20.9 mph 24.8 mph 81 % 0.0 in
16:11 7.8 °F 5.0 °F 998.9 in SW 20.9 mph 24.8 mph 81 % 0.0 in
16:12 7.2 °F 6.0 °F 999.9 in WSW 19.5 mph 27.0 mph 91 % 0.0 in
16:16 7.2 °F 6.0 °F 999.9 in WSW 19.5 mph 27.0 mph 91 % 0.0 in
16:21 7.8 °F 5.0 °F 998.9 in SW 20.9 mph 24.8 mph 81 % 0.0 in
16:23 7.8 °F 5.0 °F 998.9 in SW 20.9 mph 24.8 mph 81 % 0.0 in
16:27 7.8 °F 5.0 °F 998.9 in SW 20.9 mph 24.8 mph 81 % 0.0 in
16:32 7.8 °F 5.0 °F 998.9 in SW 20.9 mph 24.8 mph 81 % 0.0 in
16:33 7.8 °F 5.0 °F 998.9 in SW 20.9 mph 24.8 mph 81 % 0.0 in
16:34 7.8 °F 5.0 °F 998.9 in SW 20.9 mph 24.8 mph 81 % 0.0 in
16:39 7.2 °F 6.0 °F 999.9 in WSW 19.5 mph 27.0 mph 91 % 0.0 in
16:45 7.2 °F 6.0 °F 999.9 in WSW 19.5 mph 27.0 mph 91 % 0.0 in
16:46 7.2 °F 6.0 °F 999.9 in WSW 19.5 mph 27.0 mph 91 % 0.0 in
16:51 7.8 °F 5.0 °F 998.9 in SW 20.9 mph 24.8 mph 81 % 0.0 in
16:54 7.2 °F 6.0 °F 999.9 in WSW 19.5 mph 27.0 mph 91 % 0.0 in
16:59 7.2 °F 6.0 °F 999.9 in WSW 19.5 mph 27.0 mph 91 % 0.0 in
17:00 7.2 °F 6.0 °F 999.9 in WSW 19.5 mph 27.0 mph 91 % 0.0 in
17:01 7.2 °F 6.0 °F 999.9 in WSW 19.5 mph 27.0 mph 91 % 0.0 in
17:06 7.8 °F 5.0 °F 998.9 in SW 20.9 mph 24.8 mph 81 % 0.0 in
17:08 7.2 °F 6.0 °F 999.9 in WSW 19.5 mph 27.0 mph 91 % 0.0 in
17:11 7.8 °F 5.0 °F 998.9 in SW 20.9 mph 24.8 mph 81 % 0.0 in
17:16 7.2 °F 6.0 °F 999.9 in WSW 19.5 mph 27.0 mph 91 % 0.0 in
17:19 7.8 °F 5.0 °F 998.9 in SW 20.9 mph 24.8 mph 81 % 0.0 in
17:21 7.8 °F 5.0 °F 998.9 in SW 20.9 mph 24.8 mph 81 % 0.0 in
17:26 7.2 °F 6.0 °F 999.9 in WSW 19.5 mph 27.0 mph 91 % 0.0 in
17:27 7.8 °F 5.0 °F 998.9 in SW 20.9 mph 24.8 mph 81 % 0.0 in
17:31 7.8 °F 5.0 °F 998.9 in SW 20.9 mph 24.8 mph 81 % 0.0 in
17:32 7.8 °F 5.0 °F 998.9 in SW 20.9 mph 24.8 mph 81 % 0.0 in
17:33 7.2 °F 6.0 °F 999.9 in WSW 19.5 mph 27.0 mph 91 % 0.0 in
17:38 7.2 °F 6.0 °F 999.9 in WSW 19.5 mph 27.0 mph 91 % 0.0 in
17:43 7.2 °F 6.0 °F 999.9 in WSW 19.5 mph 27.0 mph 91 % 0.0 in
17:48 7.2 °F 6.0 °F 999.9 in WSW 19.5 mph 27.0 mph 91 % 0.0 in
17:49 7.2 °F 6.0 °F 999.9 in WSW 19.5 mph 27.0 mph 91 % 0.0 in
17:51 7.2 °F 6.0 °F 999.9 in WSW 19.5 mph 27.0 mph 91 % 0.0 in
17:56 7.2 °F 6.0 °F 999.9 in WSW 19.5 mph 27.0 mph 91 % 0.0 in
17:57 7.2 °F 6.0 °F 999.9 in WSW 19.5 mph 27.0 mph 91 % 0.0 in
18:02 7.2 °F 6.0 °F 999.9 in WSW 19.5 mph 27.0 mph 91 % 0.0 in
18:03 7.2 °F 6.0 °F 999.9 in WSW 19.5 mph 27.0 mph 91 % 0.0 in
18:08 7.2 °F 6.0 °F 999.9 in WSW 19.5 mph 27.0 mph 91 % 0.0 in
18:10 7.2 °F 6.0 °F 999.9 in WSW 19.5 mph 27.0 mph 91 % 0.0 in
18:13 7.8 °F 5.0 °F 998.9 in SW 20.9 mph 24.8 mph 81 % 0.0 in
18:18 7.8 °F 5.0 °F 998.9 in SW 20.9 mph 24.8 mph 81 % 0.0 in
18:19 7.8 °F 5.0 °F 998.9 in SW 20.9 mph 24.8 mph 81 % 0.0 in
18:23 7.8 °F 5.0 °F 998.9 in SW 20.9 mph 24.8 mph 81 % 0.0 in
18:28 7.8 °F 5.0 °F 998.9 in SW 20.9 mph 24.8 mph 81 % 0.0 in
18:29 7.8 °F 5.0 °F 998.9 in SW 20.9 mph 24.8 mph 81 % 0.0 in
18:34 7.8 °F 5.0 °F 998.9 in SW 20.9 mph 24.8 mph 81 % 0.0 in
18:37 7.2 °F 6.0 °F 999.9 in WSW 19.5 mph 27.0 mph 91 % 0.0 in
18:39 7.2 °F 6.0 °F 999.9 in WSW 19.5 mph 27.0 mph 91 % 0.0 in
18:42 7.2 °F 6.0 °F 999.9 in WSW 19.5 mph 27.0 mph 91 % 0.0 in
18:45 7.2 °F 6.0 °F 999.9 in WSW 19.5 mph 27.0 mph 91 % 0.0 in
18:48 7.8 °F 5.0 °F 998.9 in SW 20.9 mph 24.8 mph 81 % 0.0 in
18:50 7.2 °F 6.0 °F 999.9 in WSW 19.5 mph 27.0 mph 91 % 0.0 in
18:51 7.2 °F 6.0 °F 999.9 in WSW 19.5 mph 27.0 mph 91 % 0.0 in
18:56 7.8 °F 5.0 °F 998.9 in SW 20.9 mph 24.8 mph 81 % 0.0 in
18:58 7.2 °F 6.0 °F 999.9 in WSW 19.5 mph 27.0 mph 91 % 0.0 in
19:02 7.2 °F 6.0 °F 999.9 in WSW 19.5 mph 27.0 mph 91 % 0.0 in
19:05 7.8 °F 5.0 °F 998.9 in SW 20.9 mph 24.8 mph 81 % 0.0 in
19:07 7.8 °F 5.0 °F 998.9 in SW 20.9 mph 24.8 mph 81 % 0.0 in
19:09 7.2 °F 6.0 °F 999.9 in WSW 19.5 mph 27.0 mph 91 % 0.0 in
19:14 7.2 °F 6.0 °F 999.9 in WSW 19.5 mph 27.0 mph 91 % 0.0 in
19:17 7.8 °F 5.0 °F 998.9 in SW 20.9 mph 24.8 mph 81 % 0.0 in
19:22 7.8 °F 5.0 °F 998.9 in SW 20.9 mph 24.8 mph 81 % 0.0 in
19:24 7.2 °F 6.0 °F 999.9 in WSW 19.5 mph 27.0 mph 91 % 0.0 in
19:29 7.8 °F 5.0 °F 998.9 in SW 20.9 mph 24.8 mph 81 % 0.0 in
19:30 7.2 °F 6.0 °F 999.9 in WSW 19.5 mph 27.0 mph 91 % 0.0 in
19:35 7.8 °F 5.0 °F 998.9 in SW 20.9 mph 24.8 mph 81 % 0.0 in
19:37 7.8 °F 5.0 °F 998.9 in SW 20.9 mph 24.8 mph 81 % 0.0 in
19:41 7.2 °F 6.0 °F 999.9 in WSW 19.5 mph 27.0 mph 91 % 0.0 in
19:43 7.2 °F 6.0 °F 999.9 in WSW 19.5 mph 27.0 mph 91 % 0.0 in
19:48 7.8 °F 5.0 °F 998.9 in SW 20.9 mph 24.8 mph 81 % 0.0 in
19:49 7.8 °F 5.0 °F 998.9 in SW 20.9 mph 24.8 mph 81 % 0.0 in
19:52 7.8 °F 5.0 °F 998.9 in SW 20.9 mph 24.8 mph 81 % 0.0 in
19:55 7.8 °F 5.0 °F 998.9 in SW 20.9 mph 24.8 mph 81 % 0.0 in
20:00 7.2 °F 6.0 °F 999.9 in WSW 19.5 mph 27.0 mph 91 % 0.0 in
20:01 7.8 °F 5.0 °F 998.9 in SW 20.9 mph 24.8 mph 81 % 0.0 in
20:02 7.8 °F 5.0 °F 998.9 in SW 20.9 mph 24.8 mph 81 % 0.0 in
20:06 7.8 °F 5.0 °F 998.9 in SW 20.9 mph 24.8 mph 81 % 0.0 in
20:07 7.2 °F 6.0 °F 999.9 in WSW 19.5 mph 27.0 mph 91 % 0.0 in
20:08 7.8 °F 5.0 °F 998.9 in SW 20.9 mph 24.8 mph 81 % 0.0 in
20:13 7.2 °F 6.0 °F 999.9 in WSW 19.5 mph 27.0 mph 91 % 0.0 in
20:15 7.8 °F 5.0 °F 998.9 in SW 20.9 mph 24.8 mph 81 % 0.0 in
20:18 7.2 °F 6.0 °F 999.9 in WSW 19.5 mph 27.0 mph 91 % 0.0 in
20:20 7.8 °F 5.0 °F 998.9 in SW 20.9 mph 24.8 mph 81 % 0.0 in
20:21 7.2 °F 6.0 °F 999.9 in WSW 19.5 mph 27.0 mph 91 % 0.0 in
20:26 7.2 °F 6.0 °F 999.9 in WSW 19.5 mph 27.0 mph 91 % 0.0 in
20:31 7.8 °F 5.0 °F 998.9 in SW 20.9 mph 24.8 mph 81 % 0.0 in
20:36 7.2 °F 6.0 °F 999.9 in WSW 19.5 mph 27.0 mph 91 % 0.0 in
20:37 7.8 °F 5.0 °F 998.9 in SW 20.9 mph 24.8 mph 81 % 0.0 in
20:39 7.2 °F 6.0 °F 999.9 in WSW 19.5 mph 27.0 mph 91 % 0.0 in
20:43 7.2 °F 6.0 °F 999.9 in WSW 19.5 mph 27.0 mph 91 % 0.0 in
20:45 7.2 °F 6.0 °F 999.9 in WSW 19.5 mph 27.0 mph 91 % 0.0 in
20:48 7.8 °F 5.0 °F 998.9 in SW 20.9 mph 24.8 mph 81 % 0.0 in
20:53 7.2 °F 6.0 °F 999.9 in WSW 19.5 mph 27.0 mph 91 % 0.0 in
20:57 7.2 °F 6.0 °F 999.9 in WSW 19.5 mph 27.0 mph 91 % 0.0 in
20:59 7.8 °F 5.0 °F 998.9 in SW 20.9 mph 24.8 mph 81 % 0.0 in
21:03 7.8 °F 5.0 °F 998.9 in SW 20.9 mph 24.8 mph 81 % 0.0 in
21:07 7.8 °F 5.0 °F 998.9 in SW 20.9 mph 24.8 mph 81 % 0.0 in
21:09 7.2 °F 6.0 °F 999.9 in WSW 19.5 mph 27.0 mph 91 % 0.0 in
21:13 7.2 °F 6.0 °F 999.9 in WSW 19.5 mph 27.0 mph 91 % 0.0 in
21:16 7.8 °F 5.0 °F 998.9 in SW 20.9 mph 24.8 mph 81 % 0.0 in
21:19 7.8 °F 5.0 °F 998.9 in SW 20.9 mph 24.8 mph 81 % 0.0 in
21:24 7.8 °F 5.0 °F 998.9 in SW 20.9 mph 24.8 mph 81 % 0.0 in
21:29 7.2 °F 6.0 °F 999.9 in WSW 19.5 mph 27.0 mph 91 % 0.0 in
21:30 7.8 °F 5.0 °F 998.9 in SW 20.9 mph 24.8 mph 81 % 0.0 in
21:36 7.2 °F 6.0 °F 999.9 in WSW 19.5 mph 27.0 mph 91 % 0.0 in
21:41 7.8 °F 5.0 °F 998.9 in SW 20.9 mph 24.8 mph 81 % 0.0 in
21:43 7.2 °F 6.0 °F 999.9 in WSW 19.5 mph 27.0 mph 91 % 0.0 in
21:48 7.8 °F 5.0 °F 998.9 in SW 20.9 mph 24.8 mph 81 % 0.0 in
21:50 7.8 °F 5.0 °F 998.9 in SW 20.9 mph 24.8 mph 81 % 0.0 in
21:53 7.8 °F 5.0 °F 998.9 in SW 20.9 mph 24.8 mph 81 % 0.0 in
21:56 7.2 °F 6.0 °F 999.9 in WSW 19.5 mph 27.0 mph 91 % 0.0 in
22:01 7.2 °F 6.0 °F 999.9 in WSW 19.5 mph 27.0 mph 91 % 0.0 in
22:02 7.8 °F 5.0 °F 998.9 in SW 20.9 mph 24.8 mph 81 % 0.0 in
22:04 7.2 °F 6.0 °F 999.9 in WSW 19.5 mph 27.0 mph 91 % 0.0 in
22:08 7.2 °F 6.0 °F 999.9 in WSW 19.5 mph 27.0 mph 91 % 0.0 in
22:13 7.2 °F 6.0 °F 999.9 in WSW 19.5 mph 27.0 mph 91 % 0.0 in
22:14 7.8 °F 5.0 °F 998.9 in SW 20.9 mph 24.8 mph 81 % 0.0 in
22:18 7.8 °F 5.0 °F 998.9 in SW 20.9 mph 24.8 mph 81 % 0.0 in
22:19 7.8 °F 5.0 °F 998.9 in SW 20.9 mph 24.8 mph 81 % 0.0 in
22:24 7.8 °F 5.0 °F 998.9 in SW 20.9 mph 24.8 mph 81 % 0.0 in
22:26 7.2 °F 6.0 °F 999.9 in WSW 19.5 mph 27.0 mph 91 % 0.0 in
22:29 7.2 °F 6.0 °F 999.9 in WSW 19.5 mph 27.0 mph 91 % 0.0 in
22:34 7.8 °F 5.0 °F 998.9 in SW 20.9 mph 24.8 mph 81 % 0.0 in
22:39 7.8 °F 5.0 °F 998.9 in SW 20.9 mph 24.8 mph 81 % 0.0 in
22:40 7.8 °F 5.0 °F 998.9 in SW 20.9 mph 24.8 mph 81 % 0.0 in
22:45 7.8 °F 5.0 °F 998.9 in SW 20.9 mph 24.8 mph 81 % 0.0 in
22:46 7.8 °F 5.0 °F 998.9 in SW 20.9 mph 24.8 mph 81 % 0.0 in
22:49 7.8 °F 5.0 °F 998.9 in SW 20.9 mph 24.8 mph 81 % 0.0 in
22:50 7.2 °F 6.0 °F 999.9 in WSW 19.5 mph 27.0 mph 91 % 0.0 in
22:54 7.8 °F 5.0 °F 998.9 in SW 20.9 mph 24.8 mph 81 % 0.0 in
22:57 7.8 °F 5.0 °F 998.9 in SW 20.9 mph 24.8 mph 81 % 0.0 in
22:59 7.2 °F 6.0 °F 999.9 in WSW 19.5 mph 27.0 mph 91 % 0.0 in
23:04 7.2 °F 6.0 °F 999.9 in WSW 19.5 mph 27.0 mph 91 % 0.0 in
23:05 7.2 °F 6.0 °F 999.9 in WSW 19.5 mph 27.0 mph 91 % 0.0 in
23:10 7.2 °F 6.0 °F 999.9 in WSW 19.5 mph 27.0 mph 91 % 0.0 in
23:13 7.2 °F 6.0 °F 999.9 in WSW 19.5 mph 27.0 mph 91 % 0.0 in
23:16 7.2 °F 6.0 °F 999.9 in WSW 19.5 mph 27.0 mph 91 % 0.0 in
23:19 7.2 °F 6.0 °F 999.9 in WSW 19.5 mph 27.0 mph 91 % 0.0 in
23:21 7.2 °F 6.0 °F 999.9 in WSW 19.5 mph 27.0 mph 91 % 0.0 in
23:26 7.8 °F 5.0 °F 998.9 in SW 20.9 mph 24.8 mph 81 % 0.0 in
23:31 7.8 °F 5.0 °F 998.9 in SW 20.9 mph 24.8 mph 81 % 0.0 in
23:33 7.2 °F 6.0 °F 999.9 in WSW 19.5 mph 27.0 mph 91 % 0.0 in
23:38 7.2 °F 6.0 °F 999.9 in WSW 19.5 mph 27.0 mph 91 % 0.0 in
23:43 7.2 °F 6.0 °F 999.9 in WSW 19.5 mph 27.0 mph 91 % 0.0 in
23:45 7.2 °F 6.0 °F 999.9 in WSW 19.5 mph 27.0 mph 91 % 0.0 in
23:48 7.8 °F 5.0 °F 998.9 in SW 20.9 mph 24.8 mph 81 % 0.0 in
23:53 7.8 °F 5.0 °F 998.9 in SW 20.9 mph 24.8 mph 81 % 0.0 in
23:54 7.8 °F 5.0 °F 998.9 in SW 20.9 mph 24.8 mph 81 % 0.0 in
23:58 7.8 °F 5.0 °F 998.9 in SW 20.9 mph 24.8 mph 81 % 0.0 in
Le Gheer Warneton
Courtoisie de Weather Underground - 3 mb

Mise a jour : 17/02/2018 20:43:11
Généré par Cumulus 1.9.4 (1099)